カタログに戻る

LEMUR-2 PEGGY-2004

運用中科学SSO
NORAD 68479·PAYLOAD·🇱🇺 Luxembourg

打ち上げ Mar 30, 2026 から Vandenberg Space Force Base

Loading…

次のパス (今後24時間)

TLE

最新Source: Space-Track

元期: Sep 14, 2026, 19:38 UTC

1 68479U 26067BR  26257.81852095  .00003591  00000-0  34683-3 0  9990
2 68479  97.7635 214.8760 0001618  35.3490 324.7837 14.93457711 25105

AllMySatでLEMUR-2 PEGGY-2004をリアルタイム追跡

Download on the App Store